CAPE
0 0 0 0 0 0 0 0 0 0 0 0 0 0 0 0 0 0 0 0 0 0 0 0 0 0 0 0 0 0 0 0 0 0 0 0 0 0 0 0 0 0 0 0
0 0 0 0 0 0 0 0 0 0 0 0 0 0 0 0 0 0 0 0 0 0 0 0 0 0 0 0 0 0 0 0 0 0 0 0 0 0 0 0 0 0 0 0
0 0 0 0 0 0 0 0 0 0 0 0 0 0 0 0 0 0 0 0 0 0 0 0 0 0 0 0 0 0 0 0 0 0 0 0 0 0 0 0 0 0 0 0
0 0 0 0 0 0 0 0 0 0 0 0 0 0 0 0 0 0 0 0 0 0 0 0 0 0 0 0 0 0 0 0 0 0 0 0 0 0 0 0 0 0 0 0
0 0 0 0 0 0 0 0 0 0 0 0 0 0 0 0 0 0 0 0 0 0 0 0 0 0 0 0 0 0 0 0 0 0 0 0 0 0 0 0 0 0 0 0
0 0 0 0 0 0 0 0 0 0 0 0 0 0 0 0 0 0 0 0 0 0 0 0 0 0 0 0 0 0 0 0 0 0 0 0 0 0 0 0 0 0 0 0
0 0 0 0 0 0 0 0 0 0 0 0 0 0 0 0 0 0 0 0 0 0 0 0 0 0 0 0 0 0 0 0 0 0 0 0 0 0 0 0 0 0 0 0
0 0 0 0 0 0 0 0 0 0 0 0 0 0 0 0 0 0 0 0 0 0 0 0 0 0 0 0 0 0 0 0 0 0 0 0 0 0 0 0 0 0 0 0
0 0 0 0 0 0 0 0 0 0 0 0 0 0 0 0 0 0 0 0 0 0 0 0 0 0 0 0 0 0 0 0 0 0 0 0 0 0 0 0 0 0 0 0
0 0 0 0 0 0 0 0 0 0 0 0 0 0 0 0 0 0 0 0 0 0 0 0 0 0 0 0 0 0 0 0 0 0 0 0 0 0 0 0 0 0 0 0
0 0 0 0 0 0 0 0 0 0 0 0 0 0 0 0 0 0 0 0 0 0 0 0 0 0 0 0 0 0 0 0 0 0 0 0 0 0 0 0 0 0 0 0
0 0 0 0 0 0 0 0 0 0 0 0 0 0 0 0 0 0 0 0 0 0 0 0 0 0 0 0 0 0 0 0 0 0 0 0 0 0 0 0 0 0 0 0
0 0 0 0 0 0 0 0 0 0 0 0 0 0 0 0 0 0 0 0 0 0 0 0 0 0 0 0 0 0 0 0 0 0 0 0 0 0 0 0 0 0 0 0
0 0 0 0 0 0 0 0 0 0 0 0 0 0 0 0 0 0 0 0 0 0 0 0 0 0 0 0 0 0 0 0 0 0 0 0 0 0 0 0 0 0 0 0
0 0 0 0 0 0 0 0 0 0 0 0 0 0 0 0 0 0 0 0 0 0 0 0 0 0 0 0 0 0 0 0 0 0 0 0 0 0 0 0 0 0 0 0
0 0 0 0 0 0 0 0 0 0 0 0 0 0 0 0 0 0 0 0 0 0 0 0 0 0 0 0 0 0 0 0 0 0 0 0 0 0 0 0 0 0 0 0
0 0 0 0 0 0 0 0 0 0 0 0 0 0 0 0 0 0 0 0 0 0 0 0 0 0 0 0 0 0 0 0 0 0 0 0 0 0 0 0 0 0 0 0
0 0 0 0 0 0 0 0 0 0 0 0 0 0 0 0 0 0 0 0 0 0 0 0 0 0 0 0 0 0 0 0 0 0 0 0 0 0 0 0 0 0 0 0
0 0 0 0 0 0 0 0 0 0 0 0 0 0 0 0 0 0 0 0 0 0 0 0 0 0 0 0 0 0 0 0 0 0 0 0 0 0 0 0 0 0 0 0
0 0 0 0 0 0 0 0 0 0 0 0 0 0 0 0 0 0 0 0 0 0 0 0 0 0 0 0 0 0 0 0 0 0 0 0 0 0 0 0 0 0 0 4
0 0 0 0 0 0 0 0 0 0 0 0 0 0 0 0 0 0 0 0 0 0 0 0 0 0 0 0 0 0 0 0 0 0 0 0 0 0 0 0 0 0 0 2
0 0 0 0 0 0 0 0 0 0 0 0 0 0 0 0 0 0 0 0 0 0 0 0 0 0 0 0 0 0 0 0 0 0 0 0 0 0 0 0 0 0 0 0
0 0 0 0 0 0 0 0 0 0 0 0 0 0 0 0 0 0 0 0 0 0 0 0 0 0 0 0 0 0 0 0 0 0 0 0 0 0 0 0 0 0 0 0
0 0 0 0 0 0 0 0 0 0 0 0 0 0 0 0 0 0 0 0 0 0 0 0 0 0 0 0 0 0 0 0 0 0 0 0 0 0 0 0 0 0 0 0
0 0 0 0 0 0 0 0 0 0 0 0 0 0 0 0 0 0 0 0 0 0 0 0 0 0 0 0 0 0 0 0 0 0 0 0 0 0 0 0 0 0 0 2
0 0 0 0 0 0 0 0 0 0 0 0 0 0 0 0 0 0 0 0 0 0 0 0 0 0 0 0 0 0 0 0 0 0 0 0 0 0 0 0 0 2 13 22
CIN
-0 -0 -0 -0 -0 -0 -0 -0 -0 -0 -0 -0 -0 -0 -0 -0 -0 -0 -0 -0 -0 -0 -0 -0 -0 -0 -0 -0 -0 -0 -0 -0 -0 -0 -0 -0 -0 -0 -0 -0 -0 -0 -0 -0
-0 -0 -0 -0 -0 -0 -0 -0 -0 -0 -0 -0 -0 -0 -0 -0 -0 -0 -0 -0 -0 -0 -0 -0 -0 -0 -0 -0 -0 -0 -0 -0 -0 -0 -0 -0 -0 -0 -0 -0 -0 -0 -0 -0
-0 -0 -0 -0 -0 -0 -0 -0 -0 -0 -0 -0 -0 -0 -0 -0 -0 -0 -0 -0 -0 -0 -0 -0 -0 -0 -0 -0 -0 -0 -0 -0 -0 -0 -0 -0 -0 -0 -0 -0 -0 -0 -0 -0
-0 -0 -0 -0 -0 -0 -0 -0 -0 -0 -0 -0 -0 -0 -0 -0 -0 -0 -0 -0 -0 -0 -0 -0 -0 -0 -0 -0 -0 -0 -0 -0 -0 -0 -0 -0 -0 -0 -0 -0 -0 -0 -0 -0
-0 -0 -0 -0 -0 -0 -0 -0 -0 -0 -0 -0 -0 -0 -0 -0 -0 -0 -0 -0 -0 -0 -0 -0 -0 -0 -0 -0 -0 -0 -0 -0 -0 -0 -0 -0 -0 -0 -0 -0 -0 -0 -0 -0
-0 -0 -0 -0 -0 -0 -0 -0 -0 -0 -0 -0 -0 -0 -0 -0 -0 -0 -0 -0 -0 -0 -0 -0 -0 -0 -0 -0 -0 -0 -0 -0 -0 -0 -0 -0 -0 -0 -0 -0 -0 -0 -0 -0
-0 -0 -0 -0 -0 -0 -0 -0 -0 -0 -0 -0 -0 -0 -0 -0 -0 -0 -0 -0 -0 -0 -0 -0 -0 -0 -0 -0 -0 -0 -0 -0 -0 -0 -0 -0 -0 -0 -0 -0 -0 -0 -0 -0
-0 -0 -0 -0 -0 -0 -0 -0 -0 -0 -0 -0 -0 -0 -0 -0 -0 -0 -0 -0 -0 -0 -0 -0 -0 -0 -0 -0 -0 -0 -0 -0 -0 -0 -0 -0 -0 -0 -0 -0 -0 -0 -0 -0
-0 -0 -0 -0 -0 -0 -0 -0 -0 -0 -0 -0 -0 -0 -0 -0 -0 -0 -0 -0 -0 -0 -0 -0 -0 -0 -0 -0 -0 -0 -0 -0 -0 -0 -0 -0 -0 -0 -0 -0 -0 -0 -0 -0
-0 -0 -0 -0 -0 -0 -0 -0 -0 -0 -0 -0 -0 -0 -0 -0 -0 -0 -0 -0 -0 -0 -0 -0 -0 -0 -0 -0 -0 -0 -0 -0 -0 -0 -0 -0 -0 -0 -0 -0 -0 -0 -0 -0
-0 -0 -0 -0 -0 -0 -0 -0 -0 -0 -0 -0 -0 -0 -0 -0 -0 -0 -0 -0 -0 -0 -0 -0 -0 -0 -0 -0 -0 -0 -0 -0 -0 -0 -0 -0 -0 -0 -0 -0 -0 -0 -0 -0
-0 -0 -0 -0 -0 -0 -0 -0 -0 -0 -0 -0 -0 -0 -0 -0 -0 -0 -0 -0 -0 -0 -0 -0 -0 -0 -0 -0 -0 -0 -0 -0 -0 -0 -0 -0 -0 -0 -0 -0 -0 -0 -0 -0
-0 -0 -0 -0 -0 -0 -0 -0 -0 -0 -0 -0 -0 -0 -0 -0 -0 -0 -0 -0 -0 -0 -0 -0 -0 -0 -0 -0 -0 -0 -0 -0 -0 -0 -0 -0 -0 -0 -0 -0 -0 -0 -0 -0
-0 -0 -0 -0 -0 -0 -0 -0 -0 -0 -0 -0 -0 -0 -0 -0 -0 -0 -0 -0 -0 -0 -0 -0 -0 -0 -0 -0 -0 -0 -0 -0 -0 -0 -0 -0 -0 -0 -0 -0 -0 -0 -0 -0
-0 -0 -0 -0 -0 -0 -0 -0 -0 -0 -0 -0 -0 -0 -0 -0 -0 -0 -0 -0 -0 -0 -0 -0 -0 -0 -0 -0 -0 -0 -0 -0 -0 -0 -0 -0 -0 -0 -0 -0 -0 -0 -0 -0
-0 -0 -0 -0 -0 -0 -0 -0 -0 -0 -0 -0 -0 -0 -0 -0 -0 -0 -0 -0 -0 -0 -0 -0 -0 -0 -0 -0 -0 -0 -0 -0 -0 -0 -0 -0 -0 -0 -0 -0 -0 -0 -0 -0
-0 -0 -0 -0 -0 -0 -0 -0 -0 -0 -0 -0 -0 -0 -0 -0 -0 -0 -0 -0 -0 -0 -0 -0 -0 -0 -0 -0 -0 -0 -0 -0 -0 -0 -0 -0 -0 -0 -0 -0 -0 -0 -0 -0
-0 -0 -0 -0 -0 -0 -0 -0 -0 -0 -0 -0 -0 -0 -0 -0 -0 -0 -0 -0 -0 -0 -0 -0 -0 -0 -0 -0 -0 -0 -0 -0 -0 -0 -0 -0 -0 -0 -0 -0 -0 -0 -0 -0
-0 -0 -0 -0 -0 -0 -0 -0 -0 -0 -0 -0 -0 -0 -0 -0 -0 -0 -0 -0 -0 -0 -0 -0 -0 -0 -0 -0 -0 -0 -0 -0 -0 -0 -0 -0 -0 -0 -0 -0 -0 -0 -0 -0
-0 -0 -0 -0 -0 -0 -0 -0 -0 -0 -0 -0 -0 -0 -0 -0 -0 -0 -0 -0 -0 -0 -0 -0 -0 -0 -0 -0 -0 -0 -0 -0 -0 -0 -0 -0 -0 -0 -0 -0 -0 -0 -0 -0
-0 -0 -0 -0 -0 -0 -0 -0 -0 -0 -0 -0 -0 -0 -0 -0 -0 -0 -0 -0 -0 -0 -0 -0 -0 -0 -0 -0 -0 -0 -0 -0 -0 -0 -0 -0 -0 -0 -0 -0 -0 -0 -0 -0
-0 -0 -0 -0 -0 -0 -0 -0 -0 -0 -0 -0 -0 -0 -0 -0 -0 -0 -0 -0 -0 -0 -0 -0 -0 -0 -0 -0 -0 -0 -0 -0 -0 -0 -0 -0 -0 -0 -0 -0 -0 -0 -0 -0
-0 -0 -0 -0 -0 -0 -0 -0 -0 -0 -0 -0 -0 -0 -0 -0 -0 -0 -0 -0 -0 -0 -0 -0 -0 -0 -0 -0 -0 -0 -0 -0 -0 -0 -0 -0 -0 -0 -0 -0 -0 -0 -0 -0
-0 -0 -0 -0 -0 -0 -0 -0 -0 -0 -0 -0 -0 -0 -0 -0 -0 -0 -0 -0 -0 -0 -0 -0 -0 -0 -0 -0 -0 -0 -0 -0 -0 -0 -0 -0 -0 -0 -0 -0 -0 -0 -0 -0
-0 -0 -0 -0 -0 -0 -0 -0 -0 -0 -0 -0 -0 -0 -0 -0 -0 -0 -0 -0 -0 -0 -0 -0 -0 -0 -0 -0 -0 -0 -0 -0 -0 -0 -0 -0 -0 -0 -0 -0 -0 -0 -0 -0
-0 -0 -0 -0 -0 -0 -0 -0 -0 -0 -0 -0 -0 -0 -0 -0 -0 -0 -0 -0 -0 -0 -0 -0 -0 -0 -0 -0 -0 -0 -0 -0 -0 -0 -0 -0 -0 -0 -0 -0 -0 -0 -0 -0
Wind_Speed
2 4 8 12 12 3 3 4 5 7 8 1 7 5 12 10 5 9 10 12 11 11 8 12 14 15 15 18 19 18 17 15 11 6 4 5 4 4 6 7 8 7 3 2
2 7 14 2 4 6 7 7 7 5 7 3 4 11 7 12 6 11 13 11 10 9 11 13 14 15 16 15 16 17 17 16 12 8 4 4 2 4 3 6 9 11 9 7
9 6 5 7 5 6 4 5 5 7 4 4 2 9 4 5 12 15 13 11 9 10 10 11 13 13 13 15 14 15 15 15 14 13 9 8 6 5 8 10 9 8 11 11
6 7 7 5 6 6 4 7 7 4 3 4 3 4 2 3 8 10 8 7 7 8 8 9 11 12 12 9 9 11 13 13 13 13 11 12 7 6 4 4 5 8 11 11
6 1 3 5 7 7 7 3 3 2 3 2 3 3 5 6 3 5 4 6 6 6 7 9 10 10 9 7 7 7 11 13 11 12 11 8 9 6 4 7 10 11 10 11
6 2 3 6 2 4 5 3 5 5 3 1 6 7 4 6 9 7 6 6 7 7 6 7 6 7 8 7 7 7 9 10 9 9 10 10 10 8 8 8 8 7 6 7
2 4 2 3 4 2 3 5 1 4 2 6 4 2 4 5 11 13 11 7 6 6 6 7 7 7 7 8 8 7 10 11 9 9 9 8 7 6 7 7 6 8 7 6
5 3 8 5 6 7 6 8 7 7 4 5 5 6 2 5 11 12 9 7 6 7 5 6 6 6 7 7 6 6 7 7 8 9 9 8 6 4 3 3 3 4 4 5
7 6 1 2 2 5 5 5 1 6 3 4 5 2 2 6 8 7 7 6 6 6 6 7 6 6 6 5 6 7 7 7 7 7 7 7 7 8 8 9 7 6 5 7
5 1 1 2 2 2 3 4 4 3 2 4 4 5 5 9 11 8 8 8 7 6 7 6 6 6 3 4 4 4 4 4 3 3 2 1 2 3 5 5 7 7 8 9
5 4 3 2 4 7 1 0 3 2 4 5 2 7 1 15 14 14 9 10 9 8 8 7 6 6 6 4 4 4 3 3 3 3 3 3 4 5 5 5 7 7 7 7
4 5 4 6 2 3 1 5 6 5 6 3 2 10 3 12 12 9 8 7 7 6 7 7 7 6 5 5 4 4 4 4 5 5 4 5 6 6 6 7 8 8 8 8
7 1 2 7 4 1 3 3 4 5 3 6 5 7 3 7 7 6 7 7 6 6 6 4 3 4 3 4 4 4 5 6 6 5 5 6 7 7 7 7 7 7 10 10
6 4 8 11 6 5 4 5 4 6 4 3 7 4 6 9 8 6 3 6 7 5 4 4 2 4 4 4 4 5 6 6 7 6 7 7 7 7 8 9 10 12 12 13
3 5 4 3 2 2 4 8 8 6 6 8 8 10 12 4 5 7 7 7 6 4 1 2 3 2 2 3 5 5 5 6 5 6 6 6 7 8 10 12 13 14 15 14
4 2 3 3 5 2 7 8 11 12 11 10 12 20 9 5 7 7 8 7 4 2 4 6 3 2 2 3 3 5 5 6 6 8 9 10 11 12 13 13 12 13 14 14
4 6 4 5 4 5 10 9 19 8 7 9 12 12 4 5 8 9 8 6 5 5 7 6 4 2 3 2 3 5 5 5 5 7 8 10 12 13 11 12 15 17 17 17
6 6 3 4 3 3 5 3 1 10 5 8 1 4 4 4 5 7 7 6 5 8 7 5 5 3 3 1 3 3 4 5 7 8 10 10 11 11 13 16 17 18 16 17
1 5 3 5 5 8 9 7 8 7 8 7 9 3 4 5 5 4 6 5 6 7 6 5 4 3 3 3 1 2 4 5 7 9 9 10 11 13 14 15 17 16 16 17
2 1 6 4 6 11 7 5 2 6 6 7 6 5 7 7 3 6 6 6 6 6 6 6 5 3 4 2 2 4 5 5 7 8 10 11 12 13 15 16 17 16 15 16
4 1 12 5 4 10 7 5 2 7 10 5 7 7 7 6 8 6 5 5 6 6 6 5 4 3 3 2 2 5 6 7 7 8 9 10 11 14 15 16 14 15 16 16
9 10 6 3 5 11 7 6 8 7 3 6 7 7 10 7 7 6 8 7 7 6 5 4 3 2 1 2 2 6 7 8 8 8 10 10 11 10 11 14 14 15 16 16
3 9 9 12 10 5 11 8 13 6 6 6 7 7 9 8 7 9 7 8 7 6 4 3 2 0 1 2 3 6 8 8 9 9 11 11 11 11 11 13 15 13 14 13
6 5 4 4 6 7 12 10 5 8 8 7 7 9 8 9 10 8 6 7 6 5 4 3 1 2 2 0 5 5 8 8 8 10 11 11 11 12 11 10 11 11 12 12
8 7 6 4 6 3 8 10 10 9 9 7 7 9 11 9 7 7 5 5 5 5 4 2 1 2 4 4 5 5 7 6 9 10 11 12 10 11 12 11 12 11 13 15
9 8 5 9 12 9 11 9 11 11 11 12 10 6 6 8 8 7 6 5 4 4 3 2 2 2 4 4 6 5 4 4 7 10 9 10 10 10 10 11 12 23 26 30
Wind_Direction
209 116 202 210 202 169 167 210 228 253 260 277 265 279 260 292 288 110 110 95 83 65 51 47 43 36 34 34 35 32 34 21 28 11 17 29 36 8 23 16 14 15 3 208
77 222 230 193 159 212 242 251 255 284 257 224 294 294 31 23 15 103 108 94 87 83 61 52 47 41 42 42 39 36 35 31 26 24 6 23 35 41 42 23 23 21 8 353
188 215 176 178 220 206 213 206 218 231 303 292 327 295 108 47 69 71 66 76 75 75 70 60 56 51 45 40 36 40 37 38 32 28 29 26 27 20 16 11 9 4 10 15
234 249 202 199 211 169 255 232 212 235 111 232 83 278 44 91 71 65 75 75 79 79 69 64 59 58 54 40 38 44 43 42 38 32 41 48 53 46 8 353 349 4 9 13
241 232 180 185 218 156 222 172 172 160 139 54 319 110 259 132 106 116 100 95 90 79 82 76 71 66 51 47 43 38 51 47 39 44 43 45 41 24 6 13 10 7 7 11
236 278 217 209 131 169 153 102 51 39 90 256 212 158 250 193 179 151 137 128 111 101 81 68 58 59 53 40 50 46 50 46 43 47 47 49 44 20 26 17 18 4 359 357
266 228 263 165 120 34 110 84 338 347 344 226 169 130 252 337 139 145 138 133 115 104 98 88 67 60 60 49 40 37 41 37 29 40 43 40 38 32 33 17 7 360 359 359
168 272 177 195 197 181 188 168 163 204 208 245 274 242 301 46 98 119 130 132 119 107 103 88 85 73 65 61 57 59 55 45 31 26 20 20 21 27 40 24 1 357 348 339
178 261 120 170 171 149 191 186 199 106 41 66 224 42 115 108 101 119 135 136 141 131 117 119 110 109 101 87 70 60 50 40 29 28 20 8 1 2 355 354 0 348 333 331
189 206 46 183 127 64 166 163 70 5 165 261 278 268 199 178 172 173 170 174 168 164 159 151 140 134 122 122 122 116 140 167 187 180 183 191 293 305 297 307 303 312 314 325
130 131 249 140 205 188 128 156 83 131 151 182 242 255 233 177 175 177 191 195 182 177 173 166 162 168 164 154 165 168 169 186 221 236 241 244 257 252 257 245 251 256 267 274
182 143 182 201 342 318 349 202 165 152 227 227 172 261 92 156 165 171 194 188 189 176 180 185 179 178 183 200 213 221 225 229 241 242 239 254 263 256 250 250 250 246 247 251
179 167 62 350 346 45 185 170 126 103 80 203 177 258 96 108 132 194 190 178 156 161 186 190 191 218 241 270 290 302 300 293 287 266 261 286 293 303 299 297 297 298 297 282
104 147 177 222 190 135 158 170 166 131 137 185 223 274 177 172 180 201 131 140 154 145 134 165 176 217 244 273 302 311 305 311 313 331 330 319 313 307 304 301 304 303 293 289
130 186 139 286 136 136 182 171 187 181 179 189 247 222 255 209 229 193 160 150 153 154 133 199 186 225 287 354 351 355 9 13 359 347 335 323 311 310 307 307 306 304 302 297
356 170 101 316 292 232 268 191 191 218 233 243 252 267 269 83 107 132 159 157 153 211 224 180 204 244 18 49 28 11 10 355 351 338 326 323 319 313 312 314 328 324 318 321
126 127 85 263 360 29 303 205 202 200 196 216 225 242 166 164 157 161 166 172 199 227 207 219 223 150 144 70 35 9 349 335 327 317 314 313 313 313 324 320 315 310 306 306
136 104 94 182 30 266 245 305 302 214 178 208 123 213 190 176 160 157 192 183 215 213 219 197 156 163 144 71 53 356 331 319 316 314 313 317 319 314 312 308 305 306 305 305
118 129 109 161 190 302 277 220 170 160 266 196 194 192 194 134 117 244 223 207 233 213 184 145 139 151 154 128 125 331 316 313 314 309 315 320 317 307 305 301 301 302 300 298
169 59 134 107 166 215 247 291 134 102 286 221 152 187 174 144 159 239 208 218 205 156 147 155 160 164 128 110 25 336 320 317 304 316 315 310 308 305 300 300 301 297 293 292
98 58 208 198 225 285 241 221 168 104 242 174 187 192 170 183 201 210 197 199 171 162 152 133 131 119 82 19 18 330 323 303 318 313 305 305 305 302 296 296 296 297 294 292
158 157 197 127 203 270 174 93 176 203 183 180 191 191 194 216 239 233 232 211 167 169 154 128 123 120 66 26 355 321 307 321 314 310 304 299 296 291 291 294 294 292 291 291
232 192 181 183 202 221 195 187 212 174 164 193 188 206 203 216 229 242 221 173 171 168 151 130 108 355 22 28 353 314 312 318 317 308 299 296 291 289 291 294 291 291 289 289
255 152 202 96 229 216 206 230 208 192 208 201 205 211 195 218 228 229 180 178 168 154 145 116 72 307 285 315 312 288 308 318 313 302 301 299 298 297 295 288 286 286 286 287
205 143 165 249 270 246 252 232 232 222 219 228 222 210 219 205 215 192 176 163 170 149 135 128 212 281 284 308 303 298 309 311 307 305 302 300 295 297 296 285 284 280 279 279
202 201 193 231 230 213 238 234 216 216 212 219 217 217 224 195 192 166 178 164 150 145 141 175 199 244 277 288 292 293 278 286 299 304 302 301 299 299 295 294 291 291 293 296